EW7038 Weather Reports


time (UTC)temp
F
wind
direction
speed
knots
gust
knots
rain 1hr
in
rain 24hr
in
rain mn
in
humidity
%
barometer
mb
20260505202306 65 259 13.9 26.1 0.00 0.01 0.01 52 1012.3
20260505201803 65 279 12.2 26.1 0.00 0.01 0.01 52 1012.3
20260505201304 64 277 12.2 25.2 0.00 0.01 0.01 52 1012.3
20260505200804 64 259 11.3 26.9 0.00 0.01 0.01 52 1012.4
20260505200304 64 269 13.9 25.2 0.00 0.01 0.01 52 1012.4
20260505195804 64 260 13.9 26.9 0.00 0.01 0.01 53 1012.5
20260505194304 64 268 12.2 22.6 0.00 0.01 0.01 53 1012.6
20260505193804 63 292 10.4 30.4 0.00 0.01 0.01 53 1012.6
20260505193304 63 269 11.3 26.1 0.00 0.01 0.01 54 1012.8
20260505192803 63 285 12.2 30.4 0.00 0.01 0.01 54 1012.9
20260505192305 63 275 13.9 22.6 0.00 0.01 0.01 54 1012.8
20260505191804 63 277 11.3 24.3 0.00 0.01 0.01 54 1012.7
20260505190804 62 286 13.0 22.6 0.00 0.01 0.01 54 1012.7
20260505185804 62 271 12.2 21.7 0.00 0.01 0.01 54 1012.8
20260505185305 62 278 12.2 25.2 0.00 0.01 0.01 56 1012.9
20260505184804 62 280 14.8 26.9 0.00 0.01 0.01 55 1012.9
20260505184304 62 283 13.0 26.1 0.00 0.01 0.01 55 1012.8
20260505183803 61 280 11.3 28.7 0.00 0.01 0.01 55 1013.0
20260505182306 61 267 12.2 25.2 0.00 0.01 0.01 56 1013.0
20260505181304 60 289 15.6 26.9 0.00 0.01 0.01 57 1012.9
20260505180804 60 264 13.9 25.2 0.00 0.01 0.01 58 1013.1
20260505180304 60 267 13.0 33.0 0.00 0.01 0.01 58 1013.1
20260505175305 60 290 14.8 24.3 0.00 0.01 0.01 58 1013.1
20260505174804 60 273 14.8 24.3 0.00 0.01 0.01 58 1013.2
20260505174303 60 271 13.9 25.2 0.00 0.01 0.01 59 1013.1
20260505173804 60 266 15.6 28.7 0.00 0.01 0.01 59 1013.0
20260505173304 60 279 13.0 26.1 0.00 0.01 0.01 59 1013.1
20260505172804 59 274 13.0 26.9 0.00 0.01 0.01 60 1013.1
20260505172306 59 281 14.8 26.9 0.00 0.01 0.01 60 1013.1
20260505171804 59 267 14.8 27.8 0.00 0.01 0.01 60 1013.1
20260505171304 59 266 12.2 25.2 0.00 0.01 0.01 60 1013.2
20260505170804 59 281 13.9 28.7 0.00 0.01 0.01 61 1013.0
20260505170304 59 274 13.0 21.7 0.00 0.01 0.01 61 1013.1
20260505165804 59 276 10.4 26.1 0.00 0.01 0.01 61 1013.0
20260505165306 58 273 14.8 25.2 0.00 0.01 0.01 61 1013.0
20260505164804 58 280 10.4 26.1 0.00 0.01 0.01 62 1013.0
20260505164304 58 268 12.2 27.8 0.00 0.01 0.01 62 1013.0
20260505163804 58 282 13.0 22.6 0.00 0.01 0.01 62 1013.0
20260505163304 58 264 13.9 26.9 0.00 0.01 0.01 62 1013.0
20260505162803 58 239 14.8 26.1 0.00 0.01 0.01 62 1012.8
20260505161804 58 272 10.4 20.0 0.00 0.01 0.01 62 1012.9
20260505161304 58 255 14.8 25.2 0.00 0.01 0.01 62 1012.9
20260505160805 58 246 15.6 26.9 0.00 0.01 0.01 62 1012.8
20260505160304 58 275 10.4 25.2 0.00 0.01 0.01 63 1012.9
20260505153304 57 271 13.9 26.9 0.00 0.01 0.01 63 1012.7
20260505152804 57 264 15.6 22.6 0.00 0.01 0.01 63 1012.6
20260505151804 57 277 13.0 26.9 0.00 0.01 0.01 63 1012.6
20260505151305 57 276 12.2 24.3 0.00 0.01 0.01 64 1012.5
20260505150805 57 279 12.2 27.8 0.00 0.01 0.01 64 1012.5
20260505150304 57 281 13.9 26.1 0.00 0.01 0.01 64 1012.5
20260505140304 56 270 12.2 22.6 0.00 0.01 0.01 65 1012.0
20260505130304 56 267 16.5 24.3 0.00 0.01 0.01 64 1011.5
20260505124304 56 276 13.0 24.3 0.00 0.01 0.01 65 1011.3
20260505123804 57 271 14.8 24.3 0.00 0.01 0.01 63 1011.3
20260505123304 57 268 15.6 31.3 0.00 0.01 0.01 64 1011.2
20260505122804 57 270 15.6 26.9 0.00 0.01 0.01 62 1011.1
20260505122305 57 279 12.2 26.9 0.00 0.01 0.01 63 1011.2
20260505121804 57 262 12.2 21.7 0.00 0.01 0.01 64 1011.3
20260505121303 57 266 13.0 22.6 0.00 0.01 0.01 63 1011.0
20260505120804 57 279 13.9 27.8 0.00 0.01 0.01 63 1011.1
20260505120305 57 267 13.9 27.8 0.00 0.01 0.01 63 1011.0
20260505115305 57 257 13.9 27.8 0.00 0.01 0.01 63 1011.0
20260505114804 57 268 12.2 24.3 0.00 0.01 0.01 63 1010.9
20260505114304 58 261 13.9 25.2 0.00 0.01 0.01 62 1010.9
20260505113802 58 274 13.0 26.1 0.00 0.01 0.01 62 1010.9
20260505113303 58 278 12.2 24.3 0.00 0.01 0.01 62 1010.8
20260505112803 58 287 15.6 28.7 0.00 0.00 0.00 60 1010.9
20260505112305 58 282 15.6 31.3 0.00 0.00 0.00 61 1010.8
20260505111803 58 270 12.2 26.9 0.00 0.00 0.00 61 1010.8
20260505111303 58 270 13.0 26.1 0.00 0.00 0.00 61 1010.8
20260505110803 58 280 12.2 24.3 0.00 0.00 0.00 61 1010.7
20260505110303 58 258 12.2 25.2 0.00 0.00 0.00 61 1010.7
20260505101803 59 275 15.6 26.9 0.00 0.00 0.00 59 1010.4
20260505101303 59 251 11.3 25.2 0.00 0.00 0.00 61 1010.5
20260505100803 59 276 14.8 26.9 0.00 0.00 0.00 59 1010.3
20260505100303 59 278 14.8 26.9 0.00 0.00 0.00 58 1010.4
20260505095304 60 281 13.0 25.2 0.00 0.00 0.00 59 1010.2
20260505094803 60 267 13.0 28.7 0.00 0.00 0.00 58 1010.3
20260505094302 60 267 13.0 25.2 0.00 0.00 0.00 58 1010.1
20260505093803 60 283 12.2 22.6 0.00 0.00 0.00 59 1010.2
20260505093303 60 291 14.8 26.9 0.00 0.00 0.00 57 1009.9
20260505092305 60 274 12.2 27.8 0.00 0.00 0.00 59 1010.0
20260505091802 60 272 12.2 21.7 0.00 0.00 0.00 59 1010.1
20260505091303 61 276 13.9 26.1 0.00 0.00 0.00 57 1010.0
20260505090802 61 263 11.3 21.7 0.00 0.00 0.00 59 1009.9
20260505090303 61 287 13.9 26.1 0.00 0.00 0.00 58 1010.0
20260505085802 61 280 13.0 26.1 0.00 0.00 0.00 58 1009.8
20260505084802 62 286 11.3 20.9 0.00 0.00 0.00 58 1009.7
20260505084303 62 268 12.2 22.6 0.00 0.00 0.00 58 1009.6
20260505083303 62 269 9.6 24.3 0.00 0.00 0.00 57 1009.7
20260505082803 63 266 8.7 20.0 0.00 0.00 0.00 57 1009.7
20260505082304 63 276 12.2 20.0 0.00 0.00 0.00 56 1009.7
20260505081803 63 256 9.6 18.2 0.00 0.00 0.00 56 1009.7
20260505081303 63 253 10.4 20.0 0.00 0.00 0.00 57 1009.6
20260505080802 63 255 7.8 17.4 0.00 0.00 0.00 56 1009.5
20260505080303 64 280 9.6 19.1 0.00 0.00 0.00 56 1009.5
20260505075803 64 280 8.7 18.2 0.00 0.00 0.00 56 1009.5
20260505075304 64 274 7.8 20.9 0.00 0.00 0.00 57 1009.3
20260505074303 64 263 8.7 14.8 0.00 0.00 0.00 57 1009.3
20260505073803 64 271 7.8 21.7 0.00 0.00 0.00 58 1009.3
20260505073303 64 270 9.6 20.9 0.00 0.00 0.00 58 1009.3
20260505072803 65 236 7.8 17.4 0.00 0.00 0.00 58 1009.2
20260505072305 65 278 9.6 18.2 0.00 0.00 0.00 57 1009.1
20260505071303 65 272 8.7 20.0 0.00 0.00 0.00 57 1009.1
20260505070802 65 292 8.7 18.2 0.00 0.00 0.00 57 1009.0
20260505070303 65 280 7.8 14.8 0.00 0.00 0.00 57 1009.0
20260505065803 65 265 8.7 15.6 0.00 0.00 0.00 58 1009.0
20260505065304 65 273 10.4 19.1 0.00 0.00 0.00 56 1008.9
20260505064804 65 274 5.2 14.8 0.00 0.00 0.00 58 1009.0
20260505064302 65 264 8.7 20.9 0.00 0.00 0.00 57 1008.9
20260505063302 66 279 10.4 19.1 0.00 0.00 0.00 57 1008.8
20260505062803 66 265 7.8 20.9 0.00 0.00 0.00 58 1008.8
20260505062304 66 276 7.8 20.0 0.00 0.00 0.00 57 1008.8
20260505061803 66 275 9.6 18.2 0.00 0.00 0.00 56 1008.7
20260505061303 66 272 9.6 17.4 0.00 0.00 0.00 57 1008.6
20260505060303 66 261 12.2 22.6 0.00 0.00 0.00 56 1008.6
20260505055803 66 272 8.7 21.7 0.00 0.00 0.00 56 1008.7
20260505055304 67 268 9.6 20.0 0.00 0.00 0.00 55 1008.7
20260505053803 67 275 7.8 17.4 0.00 0.00 0.00 55 1008.6
20260505053303 67 274 8.7 18.2 0.00 0.00 0.00 55 1008.5
20260505052304 67 274 8.7 17.4 0.00 0.00 0.00 55 1008.5
20260505051303 67 275 9.6 18.2 0.00 0.00 0.00 55 1008.5
20260505050802 67 271 10.4 21.7 0.00 0.00 0.00 54 1008.4
20260505050302 67 298 7.0 17.4 0.00 0.00 0.00 55 1008.4
20260505041302 68 265 7.8 15.6 0.00 0.00 0.00 52 1007.8
20260505040803 68 264 8.7 17.4 0.00 0.00 0.00 51 1007.7
20260505040303 68 267 10.4 19.1 0.00 0.00 0.00 51 1007.6
20260505035802 68 262 7.8 17.4 0.00 0.00 0.00 50 1007.6
20260505035304 68 254 10.4 17.4 0.00 0.00 0.00 50 1007.6
20260505034803 68 264 6.1 17.4 0.00 0.00 0.00 50 1007.5
20260505034303 68 282 8.7 20.9 0.00 0.00 0.00 49 1007.4
20260505033802 69 265 8.7 18.2 0.00 0.00 0.00 49 1007.4
20260505033303 69 295 10.4 21.7 0.00 0.00 0.00 49 1007.3
20260505032802 69 264 7.8 17.4 0.00 0.00 0.00 48 1007.1
20260505032304 69 281 7.8 19.1 0.00 0.00 0.00 48 1007.1
20260505031802 69 247 6.1 15.6 0.00 0.00 0.00 48 1007.0
20260505031303 69 306 5.2 12.2 0.00 0.00 0.00 48 1007.0
20260505030803 69 268 10.4 20.0 0.00 0.00 0.00 47 1006.8
20260505025803 69 309 7.0 17.4 0.00 0.00 0.00 47 1006.6
20260505025304 69 311 6.1 20.0 0.00 0.00 0.00 47 1006.6
20260505024803 70 283 7.8 20.9 0.00 0.00 0.00 47 1006.5
20260505023804 70 308 7.0 20.9 0.00 0.00 0.00 46 1006.4
20260505022304 71 305 7.8 15.6 0.00 0.00 0.00 45 1006.3
20260505020303 71 304 6.1 13.9 0.00 0.00 0.00 45 1006.4
20260505015803 71 299 7.8 17.4 0.00 0.00 0.00 44 1006.4
20260505015304 72 280 6.1 17.4 0.00 0.00 0.00 44 1006.5
20260505014802 72 280 6.1 15.6 0.00 0.00 0.00 44 1006.4
20260505014303 72 279 7.8 19.1 0.00 0.00 0.00 44 1006.3
20260505012803 72 272 7.8 20.0 0.00 0.00 0.00 44 1006.4
20260505012304 72 265 7.0 15.6 0.00 0.00 0.00 43 1006.3
20260505011803 72 286 12.2 20.9 0.00 0.00 0.00 43 1006.4
20260505011303 72 282 10.4 21.7 0.00 0.00 0.00 43 1006.5
20260505010803 72 307 7.8 18.2 0.00 0.00 0.00 43 1006.3
20260505005803 72 293 6.1 20.0 0.00 0.00 0.00 44 1006.5
20260505005303 72 267 12.2 22.6 0.00 0.00 0.00 43 1006.4
20260505004803 72 267 11.3 20.9 0.00 0.00 0.00 43 1006.6
20260505004303 73 299 11.3 19.1 0.00 0.00 0.00 43 1006.6
20260505003803 73 278 10.4 20.0 0.00 0.00 0.00 43 1006.5
20260505002803 73 281 10.4 20.0 0.00 0.00 0.00 42 1006.6
20260505002304 73 288 11.3 25.2 0.00 0.00 0.00 42 1006.6
20260505001802 73 299 10.4 20.0 0.00 0.00 0.00 42 1006.4
20260505001304 73 290 11.3 25.2 0.00 0.00 0.00 42 1006.5
20260505000803 73 287 9.6 21.7 0.00 0.00 0.00 41 1006.5
20260505000302 73 272 14.8 21.7 0.00 0.00 0.00 41 1006.5
20260504235803 74 267 10.4 20.0 0.00 0.00 0.00 40 1006.5
20260504235304 74 267 9.6 17.4 0.00 0.00 0.00 40 1006.6
20260504234803 74 258 9.6 20.9 0.00 0.00 0.00 40 1006.6
20260504234303 74 251 7.8 17.4 0.00 0.00 0.00 39 1006.7
20260504233802 74 290 8.7 20.0 0.00 0.00 0.00 40 1006.5
20260504233304 74 269 10.4 20.9 0.00 0.00 0.00 41 1006.5
20260504232802 74 278 10.4 21.7 0.00 0.00 0.00 40 1006.5
20260504231802 74 262 11.3 21.7 0.00 0.00 0.00 40 1006.5
20260504231303 74 267 10.4 20.9 0.00 0.00 0.00 40 1006.5
20260504230803 74 289 12.2 25.2 0.00 0.00 0.00 41 1006.6
20260504225803 73 266 8.7 24.3 0.00 0.00 0.00 40 1006.7
20260504225304 73 284 13.0 22.6 0.00 0.00 0.00 40 1006.6
20260504224803 73 280 11.3 30.4 0.00 0.00 0.00 40 1006.9